sat.trackr.live / text

‹ back to catalog

YAOGAN-20 01C

NORAD 40111 · 2014-047C

PAYLOAD ACTIVE UNKNOWN

§ Identity

Operator
Country
PRC
Launch date
2014-08-09
Launch site
JSC
Launch vehicle
Mass (kg)
RCS (m²)
2.44

External: N2YO · Heavens-Above · Gunter

§ Orbital elements

Epoch: 2026-09-13T04:54:24.816096Z

Period
107.03 min
Inclination
63.3775°
Eccentricity
0.0397830
Mean motion
13.45456333 rev/d
Perigee alt
792.0 km
Apogee alt
1,386.1 km
Semi-major
7,467.2 km
B*
1.9034e-4
RAAN
152.7403°
Arg perigee
15.5768°
Mean anomaly
345.7094°
Rev number
59,413

§ Raw data

YAOGAN-20 01C1 40111U 14047C   26256.20445389  .00000091  00000+0  19034-3 0  99982 40111  63.3775 152.7403 0397830  15.5768 345.7094 13.45456333594135

JSON: /api/v1/satellites/40111 · /tle

For live sub-satellite position, see the globe view (requires WebGL).

§ Visibility from observer

Set your observer location to see the next 7 days of passes ≥ 10°. The values pass through the URL so the page stays shareable.

No JS? Fill the form by hand. The geolocation button needs JavaScript.